User: anonymous   Login
Location: Unspecified
(0.0000°N, 0.0000°E)
Time: 17:20:43
(UTC+00:00)
Language:

CANX 3A (UNIBRITE) - Orbit

View from above orbital plane
View from above orbital plane
View from above satellite
View from above satellite

Ground track
Ground track

The orbit data is extracted from the following two-line orbital elements,

1 39092U 13009G   17054.79181372  .00000033  00000-0  27213-4 0  9996
2 39092  98.5605 260.3509 0008285 278.9608  81.0639 14.34887754209218
Epoch (UTC): 23 February 2017 19:00:12
Eccentricity: 0.0008285
inclination: 98.5605°
perigee height: 769 km
apogee height: 781 km
right ascension of ascending node: 260.3509°
argument of perigee: 278.9608°
revolutions per day: 14.34887754
mean anomaly at epoch: 81.0639°
orbit number at epoch: 20921

The dashed part of the orbit path shows where the satellite is in the earth's shadow,  

DLR